www.pogodaiklimat.ru

Погода и климат >> Архив погоды >> Индия >> Тамилнад >> Адирампаттинам


ПОГОДА в Адирампаттинаме

  • Прогноз погоды в Адирампаттинаме
  • Монитор погоды в Адирампаттинаме

АРХИВ ПОГОДЫ в Адирампаттинаме

Время (UTC), дата Ветер
(напр.,м/с)
 
Видим.   Явления Облачность Т
(С)
Тd
(С)
f
(%)
Тe
(С)
Тes
(С)
Комфортность P
(гПа)
Po
(гПа)
Тmin
(С)
Tmax
(С)
R
(мм)
R24
(мм)
S
(см)
12 12.08 Ю 3 10 км 5/5 600 м
[Sc diur, vesp]
+31.6 +24.8 67 +45 +45 опасность
перегрева
1002.9 1002.2 +37.0
15 12.08 Ю 2 4000 м 3/0
[Ci fib]
+30.0 +26.4 81 +46 +46 опасность
перегрева
1005.3 1004.6
18 12.08 Ю 1 4000 м 4/0
[Ci fib]
+29.4 +26.3 83 +45 +45 опасность
перегрева
1006.3 1005.6
21 12.08 штиль 0 4000 м 5/0 2000 м
[Ac cuf Ci sp]
+29.0 +26.5 86 +44 +44 опасность
перегрева
1004.6 1003.9
00 13.08 штиль 0 4000 м 5/3 600 м
[Sc Ac trans Ci sp]
+28.0 +26.3 91 +43 +43 опасность
перегрева
1004.4 1003.7
03 13.08 ЮЗ 2 10 км 8/0
[Cs]
+30.6 +23.4 65 +41 +48 опасность
перегрева
1006.8 1006.1 +26.6 +37.0
06 13.08 Ю 4 10 км 8/1 600 м
[Sc diur, vesp Cs]
+33.6 +26.1 65 +50 +60 опасность
перегрева
1006.9 1006.2
09 13.08 Ю 5 10 км 5/3 600 м
[Sc diur, vesp Ci fib]
+33.4 +25.9 65 +49 +55 опасность
перегрева
1003.9 1003.2
12 13.08 З 2 10 км 9/3 600 м
[Sc diur, vesp Ac As]
+31.0 +26.0 75 +46 +47 опасность
перегрева
1005.6 1004.9 +34.0
15 13.08 Ю 2 4000 м {дождь} 8/1 600 м
[Sc Ac As]
+26.4 +26.4 100 +40 +40 очень
душно
1007.5 1006.8 17
18 13.08 Ю 2 4000 м 6/1 600 м
[Sc Ac As]
+28.6 +26.4 88 +44 +44 опасность
перегрева
1007.7 1007.0 17
21 13.08 штиль 0 4000 м 5/0 2000 м
[Ac As]
+28.2 +25.7 86 +42 +42 опасность
перегрева
1006.4 1005.7 17
00 14.08 штиль 0 4000 м 8/0 2000 м
[Ac As]
+27.4 +25.4 89 +40 +40 очень
душно
1006.4 1005.7 17
03 14.08 З 1 10 км 9/3 600 м
[Sc Ac As]
+29.2 +24.3 75 +41 +43 опасность
перегрева
1008.4 1007.7 +23.6 +34.0 17
06 14.08 З 1 10 км 9/5 600 м
[Sc diur, vesp Ac trans]
+33.8 +23.5 55 +45 +51 опасность
перегрева
1007.6 1006.9
09 14.08 Ю 3 10 км 9/5 600 м
[Sc diur, vesp Ac As Ci sp]
+33.0 +26.3 68 +49 +53 опасность
перегрева
1005.0 1004.3
12 14.08 З 2 4000 м слаб. дождь 10/8 600 м
[Sc Ac As]
+27.8 +26.7 94 +43 +43 опасность
перегрева
1006.6 1005.9 +35.5 3
15 14.08 Ю 1 4000 м {дождь} 10/5 600 м
[Sc Ac As]
+28.0 +25.7 87 +41 +41 опасность
перегрева
1008.2 1007.5 5
18 14.08 штиль 0 4000 м {дождь} 9/4 600 м
[Sc Ac As]
+27.6 +25.3 87 +40 +40 очень
душно
1009.1 1008.4 5
21 14.08 З 2 4000 м слаб. дождь 9/4 600 м
[Sc Ac As]
+26.8 +24.2 86 +37 +37 очень
душно
1008.1 1007.4 5
00 15.08 штиль 0 4000 м {дождь} 8/4 600 м
[Sc Ac As]
+26.2 +25.3 95 +38 +38 очень
душно
1008.0 1007.3 7
03 15.08 З 2 10 км 4/1 600 м
[Sc diur, vesp Ac trans Ci sp]
+29.2 +23.7 72 +40 +46 очень
душно
1010.4 1009.7 +23.6 +35.5 7
06 15.08 ЮЗ 1 10 км 3/1 600 м
[Sc diur, vesp Ac trans]
+34.0 +23.0 53 +44 +64 опасность
перегрева
1008.9 1008.2
09 15.08 Ю 2 10 км 4/1 600 м
[Sc diur, vesp Ac trans Ci sp]
+32.0 +26.4 72 +48 +61 опасность
перегрева
1006.3 1005.6
12 15.08 Ю 1 10 км 4/1 600 м
[Sc diur, vesp Ac trans Ci sp]
+31.2 +25.6 72 +46 +47 опасность
перегрева
1005.6 1004.9 +34.6
15 15.08 Ю 3 4000 м 9/1 600 м
[Sc diur, vesp Ac und]
+30.0 +26.1 80 +45 +45 опасность
перегрева
1007.9 1007.2
18 15.08 Ю 1 4000 м 9/1 600 м
[Sc diur, vesp Ac und]
+29.8 +25.3 77 +44 +44 опасность
перегрева
1008.6 1007.9
21 15.08 штиль 0 4000 м 9/1 600 м
[Sc diur, vesp Ac As]
+28.8 +26.3 86 +44 +44 опасность
перегрева
1007.0 1006.3
00 16.08 штиль 0 4000 м 9/1 600 м
[Sc diur, vesp Ac As]
+28.4 +26.2 88 +43 +43 опасность
перегрева
1007.5 1006.8
03 16.08 СЗ 1 10 км 8/3 600 м
[Sc diur, vesp Ac As]
+31.2 +23.4 63 +42 +45 опасность
перегрева
1008.3 1007.6 +27.2 +34.6
06 16.08 штиль 0 10 км 8/3 600 м
[Sc diur, vesp Ac As]
+34.4 +23.8 54 +46 +56 опасность
перегрева
1007.9 1007.2
09 16.08 Ю 2 10 км 9/3 600 м
[Sc diur, vesp Ac As]
+34.0 +26.8 66 +51 +56 опасность
перегрева
1005.2 1004.5
12 16.08 Ю 4 10 км 10/4 600 м
[Sc diur, vesp Ac As]
+31.0 +27.1 80 +49 +49 опасность
перегрева
1004.5 1003.8 +35.4
15 16.08 ЮЗ 4 4000 м слаб. дождь {морось} 10/4 300 м
[Frnb Ac As]
+26.0 +25.1 95 +37 +37 очень
душно
1006.8 1006.1 5
18 16.08 СЗ 2 2000 м слаб. дождь {гроза} 10/4 300 м
[Sc diur, vesp Ac As]
+25.6 +25.3 98 +37 +37 очень
душно
1009.0 1008.3 20
21 16.08 штиль 0 2000 м слаб. дождь {гроза} 10/4 300 м
[Frnb Ac As]
+25.2 +24.6 96 +35 +35 очень
душно
1007.4 1006.7 23
00 17.08 С 1 2000 м слаб. дождь {гроза} 10/4 300 м
[Frnb Ac As]
+25.0 +24.7 98 +35 +35 очень
душно
1006.8 1006.1 25
03 17.08 З 2 4000 м в посл. час морось {дождь} 10/5 300 м
[Sc Ac As]
+26.0 +25.1 95 +37 +39 очень
душно
1008.1 1007.4 +23.5 +35.4 25
06 17.08 З 2 10 км {дождь, морось} 8/3 600 м
[Sc Ac trans Cs]
+30.4 +25.0 73 +44 +53 опасность
перегрева
1007.9 1007.2
09 17.08 З 2 10 км 9/4 300 м
[Cu Sc Ac As]
+31.6 +24.8 67 +45 +49 опасность
перегрева
1005.7 1005.0
12 17.08 штиль 0 4000 м 10/4 300 м
[Cu Sc Ac As Cs]
+31.2 +24.7 68 +44 +44 опасность
перегрева
1005.4 1004.7 +31.7
15 17.08 ЮЗ 2 4000 м слаб. морось 10/4 600 м
[Sc diur, vesp Ac As Cs]
+28.0 +25.2 85 +41 +41 опасность
перегрева
1008.2 1007.5 0.0
18 17.08 З 2 4000 м {морось} 9/3 600 м
[Sc diur, vesp Ac As]
+25.4 +23.9 91 +35 +35 очень
душно
1008.6 1007.9 3
21 17.08 З 1 4000 м 10/3 600 м
[Sc diur, vesp Ac As Cs]
+25.0 +24.4 96 +35 +35 очень
душно
1006.9 1006.2 3
00 18.08 штиль 0 4000 м 10/3 600 м
[Sc diur, vesp Ac As Cs]
+25.4 +24.2 93 +35 +35 очень
душно
1007.4 1006.7 3
03 18.08 СЗ 2 10 км 8/3 600 м
[Sc Ac As]
+27.2 +24.6 86 +39 +41 очень
душно
1009.0 1008.3 +24.4 +31.7 3
06 18.08 СЗ 1 10 км 5/0 2000 м
[Ac As]
+30.4 +24.1 69 +42 +58 опасность
перегрева
1008.9 1008.2
09 18.08 штиль 0 10 км 8/6 600 м
[Sc Ac As]
+31.6 +25.4 70 +46 +51 опасность
перегрева
1006.6 1005.9
12 18.08 Ю 2 10 км 8/4 600 м
[Sc Ac As Ci fib]
+29.6 +25.1 77 +43 +43 опасность
перегрева
1006.3 1005.6 +32.2
15 18.08 Ю 2 4000 м 8/5 600 м
[Sc diur, vesp Ac As]
+29.0 +25.9 83 +43 +43 опасность
перегрева
1009.0 1008.3
18 18.08 штиль 0 4000 м слаб. морось 10/6 600 м
[Sc Ac As]
+25.0 +23.8 93 +34 +34 очень
душно
1010.4 1009.7 0.6
21 18.08 штиль 0 4000 м {морось} 9/5 600 м
[Sc Ac As]
+25.0 +24.1 95 +34 +34 очень
душно
1008.7 1008.0 3
00 19.08 штиль 0 4000 м {морось} 8/4 600 м
[Sc Ac As]
+25.2 +24.6 96 +35 +35 очень
душно
1008.5 1007.8 3
03 19.08 З 1 10 км 9/1 600 м
[Sc diur, vesp Ac trans Cs]
+28.2 +24.8 82 +40 +45 очень
душно
1001.0 1009.3 +23.8 +32.2 3
06 19.08 Ю 3 10 км 6/4 600 м
[Sc diur, vesp Ac As Cs]
+30.6 +25.5 74 +45 +54 опасность
перегрева
1009.4 1008.7

 

Местоположение метеостанции Адирампаттинам (Тамилнад, Индия): широта 10.33 долгота 79.38 высота над уровнем моря 6 м.

В архиве по умолчанию представлена погода в Адирампаттинаме за последнюю неделю. Архивные данные за месяц целиком и за предыдущие месяцы, начиная с января 2011 года, Вы можете получить, выбрав интересующий диапазон дат из раскрывающегося списка и нажав кнопку "Ввод!".


*Определитесь, кто Вы:
робот инопланетянин человек

Внимание! Время в таблицах - всемирное. Для получения местного времени необходимо прибавить поправку, которая равна 5.5 ч.

Смотрите также архив погоды в соседних городах и на ближайших метеорологических станциях:

Погода в Танджавуре (Тамилнад, Индия) (57 км)
Погода в Нагапаттинаме (Тамилнад, Индия) (71 км)
Погода в Тонди (Тамилнад, Индия) (77 км)
Погода в Кудумиянмалае (Тамилнад, Индия) (78 км)
Погода в Карайкале (Пондичерри, Индия) (82 км)
Погода в Тиручирапалли (Тамилнад, Индия) (87 км)
Погода в Джафне (Шри Ланка) (103 км)
Погода на Памбане (Тамилнад, Индия) (118 км)
Погода в Парангипеттае (Тамилнад, Индия) (137 км)
Погода в Мадурае (Тамилнад, Индия) (145 км)

Пояснения к столбцам:

Ветер - указаны скорость ветра в м/с - средняя за 10 мин, порывы в срок и между сроками (в фигурных скобках) и направление, откуда дует ветер: С - северный, СВ - северо-восточный, В - восточный, ЮВ - юго-восточный, Ю - южный, ЮЗ - юго-западный, З - западный, СЗ - северо-западный.
Видимость - горизонтальная дальность видимости в метрах или километрах. При видимости от 1 до 10 км при отсутствии осадков обычно наблюдается дымка, при ухудшении видимости до 1 км и менее - туман. В сухую погоду видимость может ухудшаться дымом, пылью или мглою.
Явления - указаны атмосферные явления, наблюдавшиеся в срок или в последний час перед сроком; фигурными скобками обозначены явления, наблюдавшиеся между сроками (за 1-3 часа до срока); квадратными скобками обозначены град или гололедные отложения с указанием их диаметра в мм.
Облачность - указаны через наклонную черту общая и нижняя облачность в баллах и высота нижней границы облаков в метрах; квадратными скобками обозначены формы облаков: Ci - перистые, Cs - перисто-слоистые, Cc - перисто-кучевые, Ac - высококучевые, As - высокослоистые, Sc - слоисто-кучевые, Ns - слоисто-дождевые, Cu - кучевые, Cb - кучево-дождевые. Подробнее классификацию облаков см. в Атласе облаков (PDF).
T - Температура воздуха - температура, измеренная на высоте 2 м над землей.
Td - Температура точки росы - температура, при понижении до которой содержащийся в воздухе водяной пар достигнет насыщения.
f - Относительная влажность воздуха - влажноcть воздуха, измеренная на высоте 2 м над землей.
Te - Эффективная температура - температура, которую ощущает одетый по сезону человек в тени. Характеристика душности погоды. При расчете учитывается влияние влажности воздуха и скорости ветра на теплоощущения человека.
Tes - Эффективная температура на солнце - температура, которую ощущает человек, с поправкой на солнечный нагрев. Характеристика знойности погоды. Зависит от высоты солнца над горизонтом, облачности и скорости ветра. Ночью, в пасмурную погоду, а также при ветре 12 м/с и более поправка равна нулю.
P - Атмосферное давление - приведенное к уровню моря атмосферное давление.
Po - Атмосферное давление - измеренное на уровне метеостанции атмосферное давление.
Tmin - Минимальная температура - минимум температуры воздуха на высоте 2 м над землей.
Tmax - Максимальная температура - максимум температуры воздуха на высоте 2 м над землей.
R - Количество осадков - Количество выпавших осадков за период времени, мм. При наведении курсора мыши на число - период времени, за который выпало указанное количество осадков.
R24 - Количество осадков - Количество выпавших осадков за 24 часа, мм.
S - Снежный покров - Высота снежного покрова, см. При наведении курсора мыши на число - состояние снежного покрова и степень покрытия местности в баллах.